AFR607 TFFF-TFFR

Flight info

Callsign AFR607
Flight time 0h 25m
Altitude 14000
Route LIDOS2R LIDOS LIDOS2S
Aircraft A320/M-SDE2E3FGIJ1RWY/HB1

Departure

Time 2026-05-05 01:44
Airport Martinique Aimé Césaire International Airport (TFFF)

Arrival

Time 2026-05-05 02:10
Airport Maryse Condé International Airport (TFFR)
Time Latitude Longitude Altitude Speed Heading
2026-05-05 00:58 14.59454 -61.00041 18 ft 0 kts 20°
2026-05-05 01:35 14.59453 -61.00042 18 ft 1 kts 20°
2026-05-05 01:36 14.59431 -61.00050 18 ft 4 kts 23°
2026-05-05 01:36 14.59408 -61.00060 18 ft 2 kts 22°
2026-05-05 01:36 14.59388 -61.00072 18 ft 4 kts 58°
2026-05-05 01:36 14.59382 -61.00097 18 ft 4 kts 102°
2026-05-05 01:37 14.59385 -61.00108 18 ft 1 kts 115°
2026-05-05 01:40 14.59384 -61.00106 18 ft 1 kts 115°
2026-05-05 01:40 14.59371 -61.00073 19 ft 6 kts 105°
2026-05-05 01:41 14.59361 -61.00033 21 ft 5 kts 103°
2026-05-05 01:41 14.59359 -60.99994 19 ft 6 kts 85°
2026-05-05 01:41 14.59366 -60.99955 21 ft 6 kts 80°
2026-05-05 01:41 14.59375 -60.99896 20 ft 10 kts 80°
2026-05-05 01:42 14.59388 -60.99820 20 ft 11 kts 80°
2026-05-05 01:42 14.59400 -60.99755 21 ft 7 kts 79°
2026-05-05 01:42 14.59402 -60.99711 21 ft 5 kts 99°
2026-05-05 01:42 14.59377 -60.99680 21 ft 8 kts 152°
2026-05-05 01:43 14.59322 -60.99669 22 ft 7 kts 170°
2026-05-05 01:43 14.59278 -60.99661 23 ft 6 kts 170°
2026-05-05 01:43 14.59231 -60.99654 23 ft 3 kts 176°
2026-05-05 01:43 14.59218 -60.99666 23 ft 3 kts 238°
2026-05-05 01:44 14.59206 -60.99737 23 ft 33 kts 260°
2026-05-05 01:44 14.59114 -61.00276 17 ft 115 kts 260°
2026-05-05 01:44 14.58943 -61.01295 137 ft 162 kts 260°
2026-05-05 01:44 14.58753 -61.02447 858 ft 165 kts 259°
2026-05-05 01:45 14.58552 -61.03608 1579 ft 166 kts 259°
2026-05-05 01:45 14.58345 -61.04785 2275 ft 168 kts 259°
2026-05-05 01:45 14.58135 -61.05976 2910 ft 169 kts 257°
2026-05-05 01:45 14.57923 -61.07189 3486 ft 179 kts 257°
2026-05-05 01:46 14.57688 -61.08532 3865 ft 201 kts 257°
2026-05-05 01:46 14.57532 -61.10059 4245 ft 228 kts 276°
2026-05-05 01:46 14.58160 -61.11644 4728 ft 255 kts 311°
2026-05-05 01:46 14.59581 -61.12858 5236 ft 277 kts 326°
2026-05-05 01:47 14.61203 -61.14031 6050 ft 288 kts 327°
2026-05-05 01:47 14.62854 -61.15196 6939 ft 293 kts 330°
2026-05-05 01:47 14.64746 -61.15964 7845 ft 294 kts 353°
2026-05-05 01:47 14.66780 -61.15980 8800 ft 293 kts
2026-05-05 01:48 14.68820 -61.15797 9776 ft 295 kts
2026-05-05 01:48 14.70898 -61.15601 10424 ft 309 kts
2026-05-05 01:48 14.73128 -61.15542 10770 ft 334 kts 354°
2026-05-05 01:48 14.75398 -61.16225 11451 ft 344 kts 341°
2026-05-05 01:49 14.77655 -61.17089 12260 ft 349 kts 341°
2026-05-05 01:49 14.79941 -61.17980 13055 ft 353 kts 341°
2026-05-05 01:49 14.82252 -61.18884 13753 ft 358 kts 341°
2026-05-05 01:49 14.84588 -61.19800 13983 ft 359 kts 341°
2026-05-05 01:50 14.86912 -61.20712 14053 ft 351 kts 341°
2026-05-05 01:50 14.89171 -61.21598 14070 ft 344 kts 341°
2026-05-05 01:50 14.91403 -61.22468 14067 ft 342 kts 342°
2026-05-05 01:50 14.93692 -61.23110 14080 ft 341 kts 348°
2026-05-05 01:51 14.96005 -61.23656 14082 ft 340 kts 349°
2026-05-05 01:51 14.98317 -61.24188 14082 ft 340 kts 349°
2026-05-05 01:51 15.00627 -61.24716 14082 ft 340 kts 349°
2026-05-05 01:51 15.02938 -61.25243 14081 ft 340 kts 349°
2026-05-05 01:52 15.05249 -61.25773 14084 ft 340 kts 349°
2026-05-05 01:52 15.07558 -61.26306 14084 ft 340 kts 349°
2026-05-05 01:52 15.09871 -61.26843 14081 ft 341 kts 349°
2026-05-05 01:52 15.12191 -61.27380 14083 ft 342 kts 349°
2026-05-05 01:53 15.14511 -61.27918 14083 ft 342 kts 349°
2026-05-05 01:53 15.16834 -61.28458 14084 ft 343 kts 349°
2026-05-05 01:53 15.18376 -61.28816 14086 ft 343 kts 349°
2026-05-05 01:53 15.21453 -61.29530 14091 ft 342 kts 349°
2026-05-05 01:54 15.23024 -61.29896 14089 ft 342 kts 349°
2026-05-05 01:54 15.26101 -61.30609 14090 ft 342 kts 349°
2026-05-05 01:54 15.28428 -61.31146 14090 ft 342 kts 349°
2026-05-05 01:54 15.30003 -61.31510 14090 ft 343 kts 349°
2026-05-05 01:55 15.32297 -61.32045 14097 ft 342 kts 349°
2026-05-05 01:55 15.34616 -61.32586 14097 ft 341 kts 349°
2026-05-05 01:55 15.36926 -61.33122 14092 ft 340 kts 350°
2026-05-05 01:55 15.39242 -61.33658 14086 ft 341 kts 349°
2026-05-05 01:56 15.41559 -61.34194 14088 ft 341 kts 349°
2026-05-05 01:56 15.43878 -61.34733 14093 ft 342 kts 349°
2026-05-05 01:56 15.46201 -61.35273 14095 ft 342 kts 349°
2026-05-05 01:56 15.48521 -61.35811 14093 ft 342 kts 349°
2026-05-05 01:57 15.50840 -61.36348 14093 ft 342 kts 349°
2026-05-05 01:57 15.53163 -61.36889 14094 ft 342 kts 349°
2026-05-05 01:57 15.55481 -61.37426 14094 ft 341 kts 349°
2026-05-05 01:57 15.57796 -61.37965 14094 ft 341 kts 349°
2026-05-05 01:58 15.60083 -61.38501 14017 ft 333 kts 349°
2026-05-05 01:58 15.62327 -61.39026 13710 ft 328 kts 349°
2026-05-05 01:58 15.64553 -61.39543 13327 ft 326 kts 349°
2026-05-05 01:58 15.66763 -61.40058 12942 ft 324 kts 349°
2026-05-05 01:59 15.68961 -61.40568 12571 ft 322 kts 349°
2026-05-05 01:59 15.71140 -61.41073 12182 ft 320 kts 349°
2026-05-05 01:59 15.73304 -61.41576 11791 ft 318 kts 349°
2026-05-05 01:59 15.75455 -61.42079 11422 ft 315 kts 348°
2026-05-05 02:00 15.77587 -61.42578 11042 ft 313 kts 349°
2026-05-05 02:00 15.79710 -61.43074 10657 ft 312 kts 349°
2026-05-05 02:00 15.81769 -61.43556 10440 ft 304 kts 349°
2026-05-05 02:00 15.83819 -61.44035 10116 ft 300 kts 349°
2026-05-05 02:01 15.85848 -61.44507 9728 ft 298 kts 349°
2026-05-05 02:01 15.87866 -61.44975 9286 ft 296 kts 349°
2026-05-05 02:01 15.89873 -61.45440 8855 ft 294 kts 349°
2026-05-05 02:01 15.91874 -61.45909 8388 ft 295 kts 349°
2026-05-05 02:02 15.93876 -61.46376 7939 ft 294 kts 349°
2026-05-05 02:02 15.95870 -61.46843 7513 ft 293 kts 349°
2026-05-05 02:02 15.97852 -61.47306 7069 ft 292 kts 349°
2026-05-05 02:02 15.99824 -61.47767 6645 ft 290 kts 349°
2026-05-05 02:03 16.01797 -61.48230 6162 ft 291 kts 349°
2026-05-05 02:03 16.03765 -61.48693 5668 ft 286 kts 350°
2026-05-05 02:03 16.05661 -61.49139 5233 ft 272 kts 351°
2026-05-05 02:03 16.07453 -61.49563 4877 ft 256 kts 351°
2026-05-05 02:04 16.09151 -61.49962 4495 ft 244 kts 351°
2026-05-05 02:04 16.10779 -61.50341 4138 ft 237 kts 351°
2026-05-05 02:04 16.12393 -61.50713 3774 ft 238 kts 351°
2026-05-05 02:04 16.13975 -61.51232 3414 ft 242 kts 334°
2026-05-05 02:05 16.15365 -61.52228 3115 ft 241 kts 326°
2026-05-05 02:05 16.16677 -61.53278 2853 ft 233 kts 324°
2026-05-05 02:05 16.17917 -61.54277 2624 ft 219 kts 324°
2026-05-05 02:05 16.19042 -61.55295 2413 ft 209 kts 317°
2026-05-05 02:06 16.20009 -61.56368 2176 ft 198 kts 315°
2026-05-05 02:06 16.20914 -61.57408 1929 ft 190 kts 315°
2026-05-05 02:06 16.21763 -61.58399 1734 ft 173 kts 315°
2026-05-05 02:06 16.22510 -61.59287 1614 ft 156 kts 316°
2026-05-05 02:07 16.23352 -61.59918 1392 ft 145 kts 344°
2026-05-05 02:07 16.24320 -61.60054 1262 ft 140 kts
2026-05-05 02:07 16.25275 -61.60125 1034 ft 134 kts
2026-05-05 02:07 16.26139 -61.59916 1019 ft 127 kts 35°
2026-05-05 02:08 16.26795 -61.59298 969 ft 128 kts 49°
2026-05-05 02:08 16.27231 -61.58517 830 ft 129 kts 78°
2026-05-05 02:08 16.27268 -61.57595 653 ft 128 kts 93°
2026-05-05 02:08 16.27160 -61.56693 504 ft 126 kts 97°
2026-05-05 02:09 16.27024 -61.55792 329 ft 125 kts 101°
2026-05-05 02:09 16.26850 -61.54898 146 ft 127 kts 101°
2026-05-05 02:09 16.26689 -61.54008 20 ft 118 kts 101°
2026-05-05 02:09 16.26558 -61.53323 25 ft 73 kts 101°
2026-05-05 02:10 16.26487 -61.52952 25 ft 43 kts 101°
2026-05-05 02:10 16.26435 -61.52668 30 ft 38 kts 101°
2026-05-05 02:10 16.26391 -61.52431 30 ft 26 kts 101°
2026-05-05 02:10 16.26363 -61.52282 33 ft 15 kts 94°
2026-05-05 02:11 16.26416 -61.52232 33 ft 11 kts 12°
2026-05-05 02:11 16.26496 -61.52216 30 ft 13 kts 11°
2026-05-05 02:11 16.26595 -61.52197 28 ft 16 kts 11°
2026-05-05 02:11 16.26688 -61.52181 25 ft 12 kts 356°
2026-05-05 02:12 16.26734 -61.52237 23 ft 11 kts 281°
2026-05-05 02:12 16.26759 -61.52381 23 ft 10 kts 281°
2026-05-05 02:12 16.26771 -61.52448 23 ft 9 kts 281°
2026-05-05 02:13 16.26783 -61.52513 26 ft 8 kts 280°
2026-05-05 02:13 16.26800 -61.52548 25 ft 4 kts 336°
2026-05-05 02:13 16.26827 -61.52545 25 ft 4 kts 12°
2026-05-05 02:13 16.26852 -61.52540 25 ft 4 kts 10°
2026-05-05 02:14 16.26876 -61.52536 23 ft 2 kts
2026-05-05 02:14 16.26880 -61.52535 23 ft 0 kts